N6EQ Weather Reports


time (UTC)temp
F
wind
direction
speed
knots
gust
knots
rain 1hr
in
rain 24hr
in
rain mn
in
humidity
%
barometer
mb
20260902043012 94 145 6.1 11.3 0.00 0.00 0.00 20 949.5
20260902041512 94 197 7.8 14.8 0.00 0.00 0.00 20 949.4
20260902040013 94 198 7.0 13.9 0.00 0.00 0.00 20 949.2
20260902034511 94 193 5.2 12.2 0.00 0.00 0.00 20 949.1
20260902033009 94 206 7.8 12.2 0.00 0.00 0.00 20 948.8
20260902031510 95 230 6.1 12.2 0.00 0.00 0.00 19 948.6
20260902030007 95 184 7.0 11.3 0.00 0.00 0.00 20 948.4
20260902024518 96 217 5.2 13.9 0.00 0.00 0.00 19 948.2
20260902023006 97 206 7.0 13.9 0.00 0.00 0.00 19 948.2
20260902021505 97 219 7.8 13.9 0.00 0.00 0.00 19 947.9
20260902020006 98 206 9.6 19.1 0.00 0.00 0.00 19 947.8
20260902014606 99 195 10.4 18.2 0.00 0.00 0.00 18 947.9
20260902013005 99 225 13.0 20.9 0.00 0.00 0.00 18 947.8
20260902011502 100 172 7.8 20.0 0.00 0.00 0.00 18 947.8
20260902010002 100 243 9.6 24.3 0.00 0.00 0.00 18 947.9
20260902004559 100 233 12.2 21.7 0.00 0.00 0.00 20 948.0
20260902003058 100 205 15.6 28.7 0.00 0.00 0.00 21 948.2
20260902001556 100 168 12.2 20.0 0.00 0.00 0.00 27 948.3
20260902000100 100 205 11.3 18.2 0.00 0.00 0.00 28 948.2
20260901234553 99 172 13.0 20.9 0.00 0.00 0.00 28 948.4
20260901233049 99 152 11.3 24.3 0.00 0.00 0.00 30 948.6
20260901231547 99 148 9.6 21.7 0.00 0.00 0.00 30 948.7
20260901230041 99 203 12.2 21.7 0.00 0.00 0.00 30 948.8
20260901224538 99 205 10.4 21.7 0.00 0.00 0.00 29 949.0
20260901223043 98 229 11.3 20.9 0.00 0.00 0.00 30 949.1
20260901221533 99 195 12.2 20.9 0.00 0.00 0.00 29 949.3
20260901220036 98 139 11.3 21.7 0.00 0.00 0.00 30 949.4
20260901214525 98 203 12.2 24.3 0.00 0.00 0.00 31 949.5
20260901213023 97 151 13.9 23.5 0.00 0.00 0.00 31 949.8
20260901211517 98 6.1 21.7 0.00 0.00 0.00 30 950.0
20260901210013 98 215 8.7 19.1 0.00 0.00 0.00 31 950.3
20260901204510 97 195 15.6 23.5 0.00 0.00 0.00 31 950.5
20260901203009 96 227 12.2 23.5 0.00 0.00 0.00 31 950.8
20260901201506 95 173 8.7 19.1 0.00 0.00 0.00 35 951.0
20260901200108 96 189 12.2 19.1 0.00 0.00 0.00 35 951.2
20260901194510 96 166 12.2 20.9 0.00 0.00 0.00 34 951.5
20260901193003 95 206 7.8 20.0 0.00 0.00 0.00 32 951.7
20260901191600 94 131 11.3 19.1 0.00 0.00 0.00 37 951.9
20260901190109 93 216 10.4 21.7 0.00 0.00 0.00 39 952.1
20260901184558 94 236 10.4 20.0 0.00 0.00 0.00 39 952.2
20260901183056 93 219 8.7 14.8 0.00 0.00 0.00 39 952.4
20260901181558 92 177 9.6 17.4 0.00 0.00 0.00 41 952.3
20260901180051 92 142 9.6 15.6 0.00 0.00 0.00 42 952.5
20260901174550 90 206 10.4 22.6 0.00 0.00 0.00 45 952.4
20260901173048 91 153 9.6 19.1 0.00 0.00 0.00 45 952.5
20260901171603 90 122 9.6 20.0 0.00 0.00 0.00 46 952.6
20260901170049 90 174 12.2 21.7 0.00 0.00 0.00 45 952.6
20260901164545 90 206 9.6 19.1 0.00 0.00 0.00 45 952.5
20260901163040 90 185 9.6 18.2 0.00 0.00 0.00 44 952.4
20260901161541 89 207 12.2 17.4 0.00 0.00 0.00 43 952.3
20260901160039 88 154 9.6 20.0 0.00 0.00 0.00 45 952.2
20260901154534 88 212 10.4 19.1 0.00 0.00 0.00 45 952.2
20260901153031 88 172 12.2 23.5 0.00 0.00 0.00 44 952.2
20260901151528 87 153 10.4 18.2 0.00 0.00 0.00 46 952.0
20260901150026 84 264 3.5 9.6 0.00 0.00 0.00 51 952.0
20260901144529 84 252 2.6 6.1 0.00 0.00 0.00 51 952.1
20260901143025 84 214 3.5 6.1 0.00 0.00 0.00 51 952.1
20260901141534 84 172 0.0 0.0 0.00 0.00 0.00 51 951.9
20260901140022 83 113 0.0 0.0 0.00 0.00 0.00 52 951.9
20260901134522 82 104 0.0 0.0 0.00 0.00 0.00 53 951.7
20260901133020 81 104 0.0 0.0 0.00 0.00 0.00 53 951.7
20260901131519 81 91 0.0 0.0 0.00 0.00 0.00 53 951.6
20260901130017 81 109 0.0 0.0 0.00 0.00 0.00 53 951.5
20260901124516 81 122 0.0 0.0 0.00 0.00 0.00 54 951.4
20260901123015 81 96 0.0 0.0 0.00 0.00 0.00 54 951.3
20260901121515 81 75 0.0 0.0 0.00 0.00 0.00 55 951.3
20260901120013 81 75 0.0 0.9 0.00 0.00 0.00 54 951.2
20260901114517 82 205 0.0 0.0 0.00 0.00 0.00 54 951.2
20260901113009 82 224 0.0 1.7 0.00 0.00 0.00 53 951.2
20260901111506 83 244 0.0 0.0 0.00 0.00 0.00 52 951.2
20260901110005 83 251 0.9 3.5 0.00 0.00 0.00 52 951.1
20260901104504 83 221 1.7 4.3 0.00 0.00 0.00 51 951.2
20260901103002 83 220 2.6 4.3 0.00 0.00 0.00 51 951.2
20260901101502 83 231 1.7 4.3 0.00 0.00 0.00 52 951.2
20260901100001 83 146 0.0 0.0 0.00 0.00 0.00 51 951.1
20260901094600 83 141 0.0 0.0 0.00 0.00 0.00 52 951.0
20260901093058 84 159 0.0 0.0 0.00 0.00 0.00 51 951.0
20260901091558 84 217 0.0 0.0 0.00 0.00 0.00 52 950.9
20260901090056 84 205 0.0 0.0 0.00 0.00 0.00 52 950.9
20260901084555 84 218 0.0 0.0 0.00 0.00 0.00 52 950.9
20260901083054 84 209 0.0 0.0 0.00 0.00 0.00 51 951.0
20260901081554 85 130 0.0 3.5 0.00 0.00 0.00 51 951.0
20260901080054 85 212 1.7 4.3 0.00 0.00 0.00 51 951.1
20260901074601 85 234 2.6 6.1 0.00 0.00 0.00 50 951.0
20260901073047 85 224 1.7 6.1 0.00 0.00 0.00 49 950.9
20260901071543 86 251 2.6 7.0 0.00 0.00 0.00 47 950.8
20260901070040 86 239 2.6 5.2 0.00 0.00 0.00 47 950.7
20260901064640 87 217 3.5 7.0 0.00 0.00 0.00 46 950.5
20260901063043 87 226 3.5 8.7 0.00 0.00 0.00 45 950.4
20260901061539 88 240 5.2 7.0 0.00 0.00 0.00 44 950.3
20260901060038 88 222 3.5 8.7 0.00 0.00 0.00 43 950.3
20260901054538 88 212 6.1 10.4 0.00 0.00 0.00 43 950.4
20260901053037 89 227 6.1 9.6 0.00 0.00 0.00 43 950.5
20260901051537 89 248 4.3 11.3 0.00 0.00 0.00 41 950.4
20260901050036 89 231 6.1 9.6 0.00 0.00 0.00 43 950.4
20260901044535 90 218 5.2 9.6 0.00 0.00 0.00 41 950.3